Location: *
(34.8620°S, 39.3380°E)
Time: 20:27:38
(UTC+00:00)

Lacrosse 4 Rocket - Pass Details

Date: 06 December 2021
Orbit: 535 x 620 km, 68.0° (Epoch: 24 January)

Event Time Altitude Azimuth Distance (km) Brightness Sun altitude
Rises 17:54:47 0° 211° (SSW) 2,729 6.4 -15.7°
Reaches altitude 10° 17:57:03 10° 217° (SW) 1,823 5.3 -16.0°
Maximum altitude 18:00:58 49° 291° (WNW) 709 2.0 -16.6°
Enters shadow 18:03:12 23° 356° (N) 1,190 2.7 -16.9°
